Regional Weather Roundup
Issued by NWS

Home | Current Version | Previous Version | Text Only | Print | Product List | Glossary On
Versions: 1 2 3 4 5 6 7 8 9 10 11 12 13 14 15 16 17 18 19 20 21 22 23 24 25 26 27 28 29 30 31 32 33 34 35 36 37 38 39 40 41 42 43 44 45 46 47 48 49 50
000
ASUS43 KDTX 300610
RWRMI
MICHIGAN HOURLY REGIONAL WEATHER ROUNDUP
NATIONAL WEATHER SERVICE DETROIT/PONTIAC MI
200 AM EDT TUE AUG 30 2016

NOTE: "FAIR" INDICATES FEW OR NO CLOUDS BELOW 12,000 FEET WITH NO
SIGNIFICANT WEATHER AND/OR OBSTRUCTION TO VISIBILITY.

MIZ047>049-052>055-059>063-066>070-074>076-081>083-300700-
SOUTHEAST LOWER MICHIGAN

CITY           SKY/WX    TMP DP  RH WIND       PRES   REMARKS
ADRIAN         FAIR      64  64 100 NW3       30.22S
6HR MIN TEMP:  63; 6HR MAX TEMP:  76;

ALMA           FAIR      65  65 100 CALM      30.19S FOG
ANN ARBOR      FOG       61  61 100 SW3       30.21R VSB 1/4
BAD AXE        FAIR      62  59  92 S3        30.20S
CARO           FAIR      63  63  98 CALM      30.19S
DETROIT CITY   FAIR      69  68  96 CALM      30.20F
6HR MIN TEMP:  69; 6HR MAX TEMP:  77;

DETROIT        FAIR      70  67  90 CALM      30.20F
6HR MIN TEMP:  70; 6HR MAX TEMP:  77;

FLINT          FAIR      67  65  93 CALM      30.20R
6HR MIN TEMP:  64; 6HR MAX TEMP:  78;

GROSSE ILE     FAIR      67  65  96 CALM      30.19S
6HR MIN TEMP:  66; 6HR MAX TEMP:  73;

HILLSDALE      FAIR      66  62  87 SE3       30.21F
6HR MIN TEMP:  51; 6HR MAX TEMP:  84;

HOWELL         FAIR      68  65  92 SW3       30.20F
6HR MIN TEMP:  67; 6HR MAX TEMP:  77;


CITY           SKY/WX    TMP DP  RH WIND       PRES   REMARKS
JACKSON        FAIR      68  64  87 CALM      30.21S
6HR MIN TEMP:  68; 6HR MAX TEMP:  78;

LAMBERTVILLE   FAIR      64  63  94 CALM      30.20S FOG
6HR MIN TEMP:  64; 6HR MAX TEMP:  74;

LANSING        FAIR      70  64  81 S5        30.20S
6HR MIN TEMP:  68; 6HR MAX TEMP:  80;

LAPEER         FAIR      63  62  97 CALM      30.20S
6HR MIN TEMP:  63; 6HR MAX TEMP:  73;

MASON          FAIR      67  65  92 SE3       30.21S
MONROE         FOG       63  63 100 CALM      30.19S VSB 3/4
6HR MIN TEMP:  62; 6HR MAX TEMP:  74;

MT. CLEMENS    FAIR      66  63  89 N1        30.18S
6HR MIN TEMP:  66; 6HR MAX TEMP:  74;

PONTIAC        FAIR      68  64  87 CALM      30.19F
6HR MIN TEMP:  68; 6HR MAX TEMP:  80;

PORT HURON     FAIR      59  59 100 CALM      30.20F
TRI CITIES     FAIR      69  66  90 CALM      30.19S
6HR MIN TEMP:  68; 6HR MAX TEMP:  77;

MIDLAND        FAIR      63  63 100 CALM      30.18R
6HR MIN TEMP:  63; 6HR MAX TEMP:  76;

TROY           FAIR      71  63  76 CALM      30.21F
SAGINAW HB     FAIR      64  63  94 SE3       30.18R
$$
MIZ043>046-050>051-056>058-064>065-071>073-077>080-300700-
SOUTHWEST LOWER MICHIGAN

CITY           SKY/WX    TMP DP  RH WIND       PRES   REMARKS
BATTLE CREEK   FAIR      69  69 100 S6        30.21S
6HR MIN TEMP:  69; 6HR MAX TEMP:  78; 6HR PCP: TRACE;

BENTON HARBOR  FAIR      73  70  90 CALM      30.18S
6HR MIN TEMP:  72; 6HR MAX TEMP:  78;

BIG RAPIDS     FAIR      65  64  97 CALM      30.20R
6HR MIN TEMP:  65; 6HR MAX TEMP:  76;

COLDWATER      FAIR      68  66  93 SE5       30.21S
6HR MIN TEMP:  68; 6HR MAX TEMP:  77;

FREMONT        FAIR      66  65  98 CALM      30.19R
6HR MIN TEMP:  65; 6HR MAX TEMP:  76;

HOLLAND        FAIR      70  68  93 CALM      30.19S
6HR MIN TEMP:  69; 6HR MAX TEMP:  78;

GRAND RAPIDS   FAIR      69  66  90 CALM      30.19S
6HR MIN TEMP:  69; 6HR MAX TEMP:  79; 6HR PCP: TRACE;

IONIA          FAIR      67  65  94 S6        30.19S
6HR MIN TEMP:  67; 6HR MAX TEMP:  75;

KALAMAZOO      FAIR      73  67  81 S5        30.20S
6HR MIN TEMP:  72; 6HR MAX TEMP:  80;

LUDINGTON      FAIR      63  63 100 CALM      30.17S FOG
6HR MIN TEMP:  61; 6HR MAX TEMP:  73;

MARSHALL       FAIR      70  68  94 S3        30.21S
6HR MIN TEMP:  69; 6HR MAX TEMP:  78;

MOUNT PLEASANT FAIR      64  64  97 CALM      30.19R FOG
6HR MIN TEMP:  64; 6HR MAX TEMP:  77;

MUSKEGON       FAIR      68  67  96 CALM      30.19R
6HR MIN TEMP:  68; 6HR MAX TEMP:  78;

SOUTH HAVEN    FAIR      72  71  98 CALM      30.19R
$$
MIZ016>042-300700-
NORTHERN LOWER MICHIGAN

CITY           SKY/WX    TMP DP  RH WIND       PRES   REMARKS
ALPENA         FAIR      63  59  87 S5        30.16S
6HR MIN TEMP:  62; 6HR MAX TEMP:  71;

BEAVER ISLAND  FAIR      71  65  81 SW9       30.13S
6HR MIN TEMP:  69; 6HR MAX TEMP:  72;

BELLAIRE       FAIR      69  66  90 CALM      30.16S
6HR MIN TEMP:  64; 6HR MAX TEMP:  75;

CADILLAC       FAIR      62  60  94 CALM      30.20S FOG
CHARLEVOIX     FAIR      71  67  86 SW6       30.17S
6HR MIN TEMP:  71; 6HR MAX TEMP:  73;

FRANKFORT      FAIR      67  64  87 CALM      30.16S
GAYLORD        FAIR      67  63  87 SW3       30.18S
6HR MIN TEMP:  67; 6HR MAX TEMP:  77;

GRAYLING       FAIR      64  63  96 CALM      30.20R
6HR MIN TEMP:  63; 6HR MAX TEMP:  75;

HARBOR SPRINGS FAIR      66  64  95 CALM      30.14S
HOUGHTON LAKE  FAIR      63  61  93 SW5       30.21R
6HR MIN TEMP:  62; 6HR MAX TEMP:  74;

MANISTEE       FOG       63  63 100 E5        30.17S VSB 1
OSCODA         FAIR      63  63  98 SW3       30.17S
6HR MIN TEMP:  62; 6HR MAX TEMP:  70;

PELLSTON       FAIR      69  64  84 CALM      30.14S
6HR MIN TEMP:  65; 6HR MAX TEMP:  75;

ROGERS CITY    FAIR      67  61  80 SW7       30.14F
TRAVERSE CITY  FAIR      71  67  87 S3        30.15R
6HR MIN TEMP:  71; 6HR MAX TEMP:  79;

$$
MIZ007>008-015-300700-
EASTERN UPPER MICHIGAN

CITY           SKY/WX    TMP DP  RH WIND       PRES   REMARKS
KINROSS        FAIR      64  63  96 S5        30.12S
6HR MIN TEMP:  63; 6HR MAX TEMP:  69;

MACKINAC ISLAN FAIR      68  65  91 SW6       30.12S
6HR MIN TEMP:  64; 6HR MAX TEMP:  69;

NEWBERRY       FAIR      68  66  94 SW8       30.11S
6HR MIN TEMP:  66; 6HR MAX TEMP:  71;

S. S. MARIE    MOCLDY    66  63  90 E3        30.11S
6HR MIN TEMP:  66; 6HR MAX TEMP:  70;

$$
MIZ004>006-011>014-085-300700-
CENTRAL UPPER MICHIGAN

CITY           SKY/WX    TMP DP  RH WIND       PRES   REMARKS
MANISTIQUE     FAIR      68  66  92 CALM      30.10F
6HR MIN TEMP:  68; 6HR MAX TEMP:  70;

ESCANABA       FAIR      72  69  90 SW6       30.11S
6HR MIN TEMP:  71; 6HR MAX TEMP:  74;

MENOMINEE      FAIR     N/A N/A N/A VRB5      30.13F
SAWYER-GWINN   FAIR      69  66  92 SW3       30.13R
6HR MIN TEMP:  69; 6HR MAX TEMP:  76;

$$
MIZ001>003-009>011-084-300700-
WESTERN UPPER MICHIGAN

CITY           SKY/WX    TMP DP  RH WIND       PRES   REMARKS
IRON MOUNTAIN  FAIR      73  67  81 W3        30.12F
6HR MIN TEMP:  71; 6HR MAX TEMP:  77; 6HR PCP: TRACE;

HOUGHTON       FAIR      71  63  75 NW15      30.09S
6HR MIN TEMP:  66; 6HR MAX TEMP:  76;

IRONWOOD       FAIR      67  66  97 NW6       30.15R
6HR MIN TEMP:  66; 6HR MAX TEMP:  75; 6HR PCP:  0.39;

$$

ABBREVIATIONS USED IN REMARKS
   TC - TEMPERATURE IN CELSIUS
  WCI - WIND CHILL INDEX
   HX - HEAT INDEX
  VSB - VISIBILITY





USA.gov is the U.S. government's official web portal to all federal, state and local government web resources and services.